sat.trackr.live / text

‹ back to catalog

STARLINK-32500

NORAD 61935 · 2024-207Z

PAYLOAD ACTIVE UNKNOWN

§ Identity

Operator
Country
US
Launch date
2024-11-11
Launch site
AFETR
Launch vehicle
Mass (kg)
RCS (m²)

Purposes: comms

External: N2YO · Heavens-Above · Gunter

§ Orbital elements

Epoch: 2026-09-21T06:48:01.461600Z

Period
94.27 min
Inclination
43.0015°
Eccentricity
0.0002633
Mean motion
15.27571170 rev/d
Perigee alt
481.3 km
Apogee alt
484.9 km
Semi-major
6,861.2 km
B*
-3.2167e-5
RAAN
260.7570°
Arg perigee
289.8641°
Mean anomaly
70.1927°
Rev number
10,459

§ Raw data

STARLINK-325001 61935U 24207Z   26264.28335025 -.00001148  00000+0 -32167-4 0  99952 61935  43.0015 260.7570 0002633 289.8641  70.1927 15.27571170104599

JSON: /api/v1/satellites/61935 · /tle

For live sub-satellite position, see the globe view (requires WebGL).

§ Visibility from observer

Set your observer location to see the next 7 days of passes ≥ 10°. The values pass through the URL so the page stays shareable.

No JS? Fill the form by hand. The geolocation button needs JavaScript.